Weather History for Crockett, TX

Change the Weather History Date:

Saturday, July 6, 2013

  Actual Average (KLFK) Record (KLFK)
Temperature  
Mean Temperature 83 °F 82 °F  
Max Temperature 95 °F 93 °F 104 °F (1943)
Min Temperature 71 °F 72 °F 62 °F (1920)
Degree Days  
Heating Degree Days 0 0  
Month to date heating degree days 0  
Since 1 June heating degree days 0  
Since 1 July heating degree days 0  
Cooling Degree Days 18 17  
Month to date cooling degree days 102  
Year to date cooling degree days 1023  
Since 1 June cooling degree days 554  
Growing Degree Days 33 (Base 50)    
Moisture  
Dew Point 67 °F    
Average Humidity 61    
Maximum Humidity 94    
Minimum Humidity 30    
Precipitation  
Precipitation 0.00 in 0.12 in 1.59 in (1911)
Month to date precipitation 0.74  
Year to date precipitation 24.94  
Snow  
Snow 0.00 in - - ()
Month to date snowfall  
Since 1 June snowfall  
Since 1 July snowfall  
Snow Depth -    
Sea Level Pressure  
Sea Level Pressure 29.96 in    
Wind  
Wind Speed 4 mph (ESE)    
Max Wind Speed 10 mph    
Max Gust Speed -    
Visibility 9 miles    
Events      
T = Trace of Precipitation, MM = Missing Value Source: NWS Daily Summary

Daily Weather History Graph

Daily Weather History Graph

Search for Another Location

Airport:

Trip Planner

Search our weather history database for the weather conditions in past years. The results will help you decide how hot, cold, wet, or windy it might be!

Date:

Astronomy

Jul. 06, 2013 Rise Set
Actual Time 6:23 AM CDT 8:29 PM CDT
Civil Twilight 5:55 AM CDT 8:57 PM CDT
Nautical Twilight 5:21 AM CDT 9:30 PM CDT
Astronomical Twilight 4:45 AM CDT 10:07 PM CDT
Moon 5:06 AM CDT (7/6) 7:15 PM CDT (7/6)
Length of Visible Light 15h 01m
Length of Day
14h 06m
Waning Crescent, 2% of the Moon is Illuminated
Jul 6
Waning Crescent
Jul 8
New
Jul 15
First Quarter
Jul 22
Full
Jul 29
Last Quarter

Hourly Weather History & Observations

Time (CDT) Temp. Heat Index Dew Point Humidity Pressure Visibility Wind Dir Wind Speed Gust Speed Precip Events Conditions
12:15 AM 78.8 °F - 64.4 °F 61% 29.98 in 10.0 mi SE 4.6 mph - N/A   Clear
12:35 AM 77.0 °F - 64.4 °F 65% 29.99 in 10.0 mi ESE 3.5 mph - N/A   Clear
12:55 AM 77.0 °F - 66.2 °F 69% 29.98 in 10.0 mi Calm Calm - N/A   Clear
1:15 AM 75.2 °F - 66.2 °F 73% 29.98 in 9.0 mi Calm Calm - N/A   Clear
1:35 AM 75.2 °F - 66.2 °F 73% 29.98 in 10.0 mi ESE 3.5 mph - N/A   Clear
1:55 AM 75.2 °F - 66.2 °F 73% 29.98 in 10.0 mi SE 3.5 mph - N/A   Clear
2:15 AM 75.2 °F - 66.2 °F 73% 29.98 in 10.0 mi ESE 3.5 mph - N/A   Clear
2:35 AM 75.2 °F - 66.2 °F 73% 29.98 in 9.0 mi ESE 3.5 mph - N/A   Clear
2:55 AM 73.4 °F - 68.0 °F 83% 29.98 in 10.0 mi ESE 4.6 mph - N/A   Clear
3:15 AM 73.4 °F - 68.0 °F 83% 29.98 in 10.0 mi ESE 4.6 mph - N/A   Clear
3:35 AM 73.4 °F - 69.8 °F 88% 29.98 in 10.0 mi ENE 3.5 mph - N/A   Clear
3:55 AM 71.6 °F - 68.0 °F 88% 29.98 in 10.0 mi East 3.5 mph - N/A   Clear
4:15 AM 71.6 °F - 69.8 °F 94% 29.98 in 10.0 mi Calm Calm - N/A   Clear
4:35 AM 71.6 °F - 68.0 °F 88% 29.98 in 9.0 mi ENE 3.5 mph - N/A   Clear
4:55 AM 71.6 °F - 69.8 °F 94% 29.97 in 8.0 mi ENE 3.5 mph - N/A   Clear
5:15 AM 71.6 °F - 69.8 °F 94% 29.98 in 8.0 mi Calm Calm - N/A   Clear
5:35 AM 71.6 °F - 69.8 °F 94% 29.98 in 8.0 mi NE 3.5 mph - N/A   Clear
5:55 AM 71.6 °F - 69.8 °F 94% 29.98 in 7.0 mi NE 4.6 mph - N/A   Clear
6:15 AM 71.6 °F - 69.8 °F 94% 29.98 in 5.0 mi ENE 3.5 mph - N/A   Clear
6:35 AM 71.6 °F - 69.8 °F 94% 29.98 in 4.0 mi NE 4.6 mph - N/A   Partly Cloudy
6:55 AM 71.6 °F - 69.8 °F 94% 29.99 in 5.0 mi East 4.6 mph - N/A   Mostly Cloudy
7:15 AM 73.4 °F - 69.8 °F 88% 29.99 in 5.0 mi East 4.6 mph - N/A   Mostly Cloudy
7:35 AM 73.4 °F - 69.8 °F 88% 29.99 in 5.0 mi East 5.8 mph - N/A   Mostly Cloudy
7:55 AM 73.4 °F - 71.6 °F 94% 30.00 in 4.0 mi ESE 4.6 mph - N/A   Mostly Cloudy
8:15 AM 73.4 °F - 71.6 °F 94% 30.00 in 4.0 mi East 3.5 mph - N/A   Overcast
8:35 AM 75.2 °F - 71.6 °F 89% 30.00 in 5.0 mi East 3.5 mph - N/A   Overcast
8:55 AM 78.8 °F - 71.6 °F 78% 30.01 in 8.0 mi SE 3.5 mph - N/A   Scattered Clouds
9:15 AM 80.6 °F 85.4 °F 73.4 °F 79% 30.01 in 8.0 mi East 4.6 mph - N/A   Clear
9:35 AM 82.4 °F 88.2 °F 73.4 °F 74% 30.01 in 9.0 mi SE 6.9 mph - N/A   Clear
9:55 AM 82.4 °F 88.2 °F 73.4 °F 74% 30.00 in 9.0 mi ESE 5.8 mph - N/A   Partly Cloudy
10:15 AM 82.4 °F 87.2 °F 71.6 °F 70% 30.00 in 9.0 mi SSE 4.6 mph - N/A   Partly Cloudy
10:35 AM 82.4 °F 87.2 °F 71.6 °F 70% 30.00 in 9.0 mi East 4.6 mph - N/A   Partly Cloudy
10:55 AM 84.2 °F 89.6 °F 71.6 °F 66% 30.00 in 9.0 mi SE 4.6 mph - N/A   Partly Cloudy
11:15 AM 87.8 °F 93.8 °F 71.6 °F 58% 29.99 in 10.0 mi SE 5.8 mph - N/A   Clear
11:35 AM 87.8 °F 92.6 °F 69.8 °F 55% 29.99 in 9.0 mi ESE 4.6 mph - N/A   Partly Cloudy
11:55 AM 87.8 °F 92.6 °F 69.8 °F 55% 29.99 in 10.0 mi ESE 8.1 mph - N/A   Partly Cloudy
12:15 PM 87.8 °F 91.4 °F 68.0 °F 52% 29.98 in 10.0 mi SE 5.8 mph - N/A   Partly Cloudy
12:35 PM 89.6 °F 92.2 °F 66.2 °F 46% 29.98 in 9.0 mi SE 8.1 mph - N/A   Partly Cloudy
12:55 PM 91.4 °F 93.2 °F 64.4 °F 41% 29.97 in 10.0 mi East 8.1 mph - N/A   Clear
1:15 PM 91.4 °F 93.2 °F 64.4 °F 41% 29.97 in 9.0 mi SE 5.8 mph - N/A   Clear
1:35 PM 91.4 °F 93.2 °F 64.4 °F 41% 29.96 in 9.0 mi SSE 8.1 mph - N/A   Clear
1:55 PM 91.4 °F 92.1 °F 62.6 °F 38% 29.96 in 10.0 mi East 9.2 mph - N/A   Clear
2:15 PM 91.4 °F 92.1 °F 62.6 °F 38% 29.95 in 10.0 mi East 9.2 mph - N/A   Unknown
2:35 PM 93.2 °F 94.1 °F 62.6 °F 36% 29.94 in 10.0 mi NE 5.8 mph - N/A   Unknown
2:55 PM 93.2 °F 93.3 °F 60.8 °F 34% 29.94 in 10.0 mi South 3.5 mph - N/A   Unknown
3:15 PM 91.4 °F 92.1 °F 62.6 °F 38% 29.93 in 10.0 mi ENE 8.1 mph - N/A   Unknown
3:35 PM 93.2 °F 94.1 °F 62.6 °F 36% 29.92 in 9.0 mi SE 6.9 mph - N/A   Unknown
3:55 PM 93.2 °F 94.1 °F 62.6 °F 36% 29.92 in 10.0 mi SSE 10.4 mph - N/A   Unknown
4:15 PM 93.2 °F 94.1 °F 62.6 °F 36% 29.92 in 9.0 mi SE 8.1 mph - N/A   Unknown
4:35 PM 95.0 °F 96.0 °F 62.6 °F 34% 29.91 in 9.0 mi SE 6.9 mph - N/A   Unknown
4:55 PM 93.2 °F 94.1 °F 62.6 °F 36% 29.90 in 9.0 mi ESE 8.1 mph - N/A   Unknown
5:15 PM 95.0 °F 96.0 °F 62.6 °F 34% 29.90 in 9.0 mi ESE 8.1 mph - N/A   Unknown
5:35 PM 95.0 °F 95.2 °F 60.8 °F 32% 29.90 in 10.0 mi SSE 6.9 mph - N/A   Unknown
5:55 PM 95.0 °F 94.4 °F 59.0 °F 30% 29.90 in 10.0 mi East 4.6 mph - N/A   Unknown
6:15 PM 93.2 °F 93.3 °F 60.8 °F 34% 29.90 in 9.0 mi ESE 6.9 mph - N/A   Unknown
6:35 PM 93.2 °F 93.3 °F 60.8 °F 34% 29.90 in 9.0 mi SE 5.8 mph - N/A   Unknown
6:55 PM 93.2 °F 93.3 °F 60.8 °F 34% 29.90 in 10.0 mi ESE 6.9 mph - N/A   Clear
7:15 PM 91.4 °F 92.1 °F 62.6 °F 38% 29.90 in 10.0 mi ESE 5.8 mph - N/A   Clear
7:35 PM 91.4 °F 92.1 °F 62.6 °F 38% 29.90 in 9.0 mi ESE 4.6 mph - N/A   Clear
7:55 PM 91.4 °F 93.2 °F 64.4 °F 41% 29.91 in 10.0 mi East 4.6 mph - N/A   Clear
8:15 PM 89.6 °F 91.1 °F 64.4 °F 43% 29.91 in 10.0 mi East 4.6 mph - N/A   Scattered Clouds
8:35 PM 87.8 °F 90.4 °F 66.2 °F 49% 29.92 in 10.0 mi East 3.5 mph - N/A   Partly Cloudy
8:55 PM 87.8 °F 90.4 °F 66.2 °F 49% 29.93 in 10.0 mi Calm Calm - N/A   Clear
9:15 PM 86.0 °F 88.2 °F 66.2 °F 51% 29.94 in 10.0 mi East 3.5 mph - N/A   Clear
9:35 PM 84.2 °F 86.6 °F 66.2 °F 55% 29.94 in 10.0 mi Calm Calm - N/A   Clear
9:55 PM 84.2 °F 86.6 °F 66.2 °F 55% 29.95 in 10.0 mi East 3.5 mph - N/A   Clear
10:15 PM 84.2 °F 86.6 °F 66.2 °F 55% 29.96 in 10.0 mi East 3.5 mph - N/A   Clear
10:35 PM 82.4 °F 84.6 °F 66.2 °F 58% 29.97 in 10.0 mi ESE 4.6 mph - N/A   Clear
10:55 PM 82.4 °F 84.6 °F 66.2 °F 58% 29.97 in 10.0 mi East 3.5 mph - N/A   Clear
11:15 PM 82.4 °F 84.6 °F 66.2 °F 58% 29.97 in 10.0 mi SE 4.6 mph - N/A   Clear
11:35 PM 80.6 °F 82.7 °F 66.2 °F 61% 29.97 in 10.0 mi SE 4.6 mph - N/A   Clear
11:55 PM 80.6 °F 82.7 °F 66.2 °F 61% 29.97 in 10.0 mi SE 3.5 mph - N/A   Clear